Simultaneous Nadir Overpasses (SNOs) Predictions

Prediction of SNOs between LANDSAT-8 and METOP-B Satellite Orbit:

Table of predicted SNOs for the next 14.0 days since TLE Epoch: 6/29/2020
Index Date (LANDSAT-8) Time (LANDSAT-8) Lat,Lon (LANDSAT-8) SZA (LANDSAT-8 ) Date (METOP-B) Time (METOP-B) Lat,Lon (METOP-B) SZA (METOP-B ) Distance(km) Time Diff (sec)
1 07/01/2020 03:36:18 81.17, 166.66 60.23 07/01/2020 03:35:44 81.17, 166.85 60.24 3.30 34
2 07/01/2020 04:25:44 -81.19, -25.40 119.72 07/01/2020 04:26:24 -81.19, -25.35 119.70 0.98 40
3 07/03/2020 23:10:35 81.16,-127.07 60.42 07/03/2020 23:10:06 81.16,-127.03 60.41 0.93 29
4 07/04/2020 00:00:01 -81.18, 40.89 119.54 07/04/2020 00:00:46 -81.18, 40.79 119.53 1.69 45
5 07/06/2020 18:44:51 81.17, -60.46 60.71 07/06/2020 18:44:27 81.16, -60.53 60.69 1.42 24
6 07/06/2020 19:34:17 -81.19, 107.53 119.24 07/06/2020 19:35:06 -81.19, 107.67 119.20 2.42 49
7 07/09/2020 14:19:06 81.18, 6.15 61.05 07/09/2020 14:18:46 81.18, 6.33 61.06 3.16 20
8 07/09/2020 15:08:33 -81.18, 173.78 118.95 07/09/2020 15:09:27 -81.18, 173.78 118.93 0.38 54
9 07/12/2020 09:53:23 81.17, 72.37 61.38 07/12/2020 09:53:08 81.17, 72.43 61.39 1.14 15
